Location: Cheching
(60.0667°N, 164.2167°W)
Time: 14:10:03
(UTC+00:00)

STRAND 1 - Pass Details

Date: 19 January 2021
Orbit: 768 x 780 km, 98.4° (Epoch: 04 March)

Event Time Altitude Azimuth Distance (km) Brightness Sun altitude
Rises 16:54:02 0° 160° (SSE) 3,236 ? -19.1°
Reaches altitude 10° 16:56:20 10° 160° (SSE) 2,314 ? -18.8°
Maximum altitude 17:01:27 90° 48° (NE) 782 ? -18.2°
Drops below altitude 10° 17:06:37 10° 342° (NNW) 2,337 ? -17.5°
Enters shadow 17:07:53 - 343° (NNW) 2,839 ? -17.4°
